Marietta, GA

8:33 AM EST on November 19, 2017 (GMT -0500)
Dobbins Air Force Base

Weather History for KMGE - March, 2014

Change the Weather History Date:

Tuesday, March 4, 2014

  Actual Average Record
Temperature  
Mean Temperature 37 °F -  
Max Temperature 42 °F 57 °F 77 °F (2004)
Min Temperature 32 °F 38 °F 21 °F (2002)
Degree Days  
Heating Degree Days 28    
Moisture  
Dew Point 28 °F    
Average Humidity 72    
Maximum Humidity 100    
Minimum Humidity 48    
Precipitation  
Precipitation 0.00 in - - ()
Sea Level Pressure  
Sea Level Pressure 30.15 in    
Wind  
Wind Speed 5 mph (NE)    
Max Wind Speed 13 mph    
Max Gust Speed 18 mph    
Visibility 10 miles    
Events      
Averages and records for this station are not official NWS values.
T = Trace of Precipitation, MM = Missing Value Source: NWS Daily Summary

Daily Weather History Graph

Daily Weather History Graph

Search for Another Location

Airport or City:

Trip Planner

Search our weather history database for the weather conditions in past years. The results will help you decide how hot, cold, wet, or windy it might be!

Date:

Astronomy

Mar. 04, 2014 Rise Set
Actual Time 7:02 AM EST 6:37 PM EST
Civil Twilight 6:37 AM EST 7:02 PM EST
Nautical Twilight 6:09 AM EST 7:31 PM EST
Astronomical Twilight 5:40 AM EST 8:00 PM EST
Moon 8:59 AM EST (3/4) 10:30 PM EST (3/4)
Length of Visible Light 12h 24m
Length of Day
11h 34m
Waxing Crescent, 14% of the Moon is Illuminated
Mar 4
Waxing Crescent
Mar 8
First Quarter
Mar 16
Full
Mar 23
Last Quarter
Mar 30
New

Hourly Weather History & Observations

Time (EST) Temp. Windchill Dew Point Humidity Pressure Visibility Wind Dir Wind Speed Gust Speed Precip Events Conditions
12:23 AM 32.0 °F 27.5 °F 32.0 °F 100% 30.13 in 10.0 mi NNW 4.6 mph - N/A   Overcast
12:58 AM 32.0 °F 26.4 °F 32.0 °F 100% 30.15 in 10.0 mi NNW 5.8 mph - N/A   Overcast
1:08 AM 32.0 °F 27.5 °F 32.0 °F 100% 30.14 in 10.0 mi WNW 4.6 mph - N/A   Overcast
1:13 AM 32.0 °F 28.7 °F 32.0 °F 100% 30.14 in 10.0 mi NW 3.5 mph - N/A   Overcast
1:18 AM 32.0 °F - 32.0 °F 100% 30.14 in 10.0 mi NW 2.3 mph - N/A   Overcast
1:28 AM 32.0 °F - 32.0 °F 100% 30.14 in 10.0 mi WNW 2.3 mph - N/A   Overcast
1:33 AM 32.0 °F 28.7 °F 32.0 °F 100% 30.14 in 10.0 mi NW 3.5 mph - N/A   Overcast
1:38 AM 32.0 °F 27.5 °F 32.0 °F 100% 30.14 in 10.0 mi NW 4.6 mph - N/A   Overcast
1:43 AM 32.0 °F 28.7 °F 32.0 °F 100% 30.14 in 10.0 mi NNW 3.5 mph - N/A   Overcast
1:48 AM 32.0 °F 27.5 °F 32.0 °F 100% 30.14 in 10.0 mi NNW 4.6 mph - N/A   Overcast
1:58 AM 32.9 °F 28.5 °F 31.5 °F 94% 30.17 in 10.0 mi Variable 4.6 mph - N/A   Overcast
2:38 AM 32.0 °F 28.7 °F 32.0 °F 100% 30.14 in 10.0 mi NW 3.5 mph - N/A   Overcast
2:43 AM 32.0 °F 27.5 °F 32.0 °F 100% 30.14 in 10.0 mi NW 4.6 mph - N/A   Overcast
2:48 AM 32.0 °F 27.5 °F 32.0 °F 100% 30.14 in 10.0 mi NNW 4.6 mph - N/A   Overcast
2:58 AM 33.1 °F 30.0 °F 31.8 °F 95% 30.16 in 10.0 mi NNW 3.5 mph - N/A   Overcast
3:08 AM 32.0 °F - 32.0 °F 100% 30.13 in 10.0 mi Variable 2.3 mph - N/A   Overcast
3:18 AM 32.0 °F - 32.0 °F 100% 30.13 in 10.0 mi NW 2.3 mph - N/A   Overcast
3:38 AM 32.0 °F - 32.0 °F 100% 30.12 in 10.0 mi North 2.3 mph - N/A   Overcast
3:48 AM 32.0 °F 28.7 °F 32.0 °F 100% 30.12 in 10.0 mi NNW 3.5 mph - N/A   Overcast
3:58 AM 33.8 °F 29.6 °F 32.5 °F 95% 30.15 in 10.0 mi North 4.6 mph - N/A   Overcast
4:05 AM 33.8 °F 29.6 °F 32.0 °F 93% 30.11 in 10.0 mi North 4.6 mph - N/A   Overcast
4:58 AM 34.9 °F 32.0 °F 33.3 °F 94% 30.16 in 10.0 mi North 3.5 mph - N/A   Overcast
5:58 AM 36.7 °F 31.2 °F 30.4 °F 78% 30.18 in 10.0 mi ENE 6.9 mph - N/A   Overcast
6:08 AM 37.4 °F 30.3 °F 30.2 °F 75% 30.15 in 10.0 mi ENE 10.4 mph - N/A   Overcast
6:58 AM 36.0 °F 33.3 °F 29.7 °F 78% 30.19 in 10.0 mi Variable 3.5 mph - N/A   Overcast
7:33 AM 35.6 °F 31.7 °F 28.4 °F 75% 30.17 in 10.0 mi ENE 4.6 mph - N/A   Overcast
7:58 AM 35.6 °F 29.9 °F 28.4 °F 75% 30.21 in 10.0 mi Variable 6.9 mph - N/A   Overcast
8:58 AM 36.5 °F 30.3 °F 26.2 °F 66% 30.20 in 10.0 mi East 8.1 mph 17.3 mph N/A   Overcast
9:24 AM 37.4 °F 30.3 °F 26.6 °F 65% 30.17 in 10.0 mi ENE 10.4 mph 18.4 mph N/A   Overcast
9:48 AM 37.4 °F 31.4 °F 26.6 °F 65% 30.18 in 10.0 mi ENE 8.1 mph - N/A   Overcast
9:58 AM 37.6 °F 32.3 °F 26.4 °F 64% 30.22 in 10.0 mi Variable 6.9 mph - N/A   Overcast
10:58 AM 38.7 °F 30.9 °F 25.3 °F 59% 30.22 in 10.0 mi East 12.7 mph - N/A   Overcast
11:58 AM 39.9 °F 37.8 °F 22.8 °F 50% 30.23 in 10.0 mi Variable 3.5 mph - N/A   Overcast
12:33 PM 41.0 °F 35.8 °F 23.0 °F 49% 30.17 in 10.0 mi East 8.1 mph - N/A   Overcast
12:50 PM 41.0 °F 36.4 °F 23.0 °F 49% 30.16 in 10.0 mi East 6.9 mph - N/A   Overcast
12:58 PM 41.0 °F 35.8 °F 23.4 °F 50% 30.19 in 10.0 mi East 8.1 mph - N/A   Overcast
1:30 PM 41.0 °F 37.1 °F 24.8 °F 53% 30.14 in 10.0 mi Variable 5.8 mph - N/A   Overcast
1:58 PM 41.9 °F 35.9 °F 24.1 °F 49% 30.16 in 10.0 mi East 10.4 mph - N/A   Overcast
2:58 PM 42.3 °F 38.6 °F 23.9 °F 48% 30.16 in 10.0 mi East 5.8 mph - N/A   Overcast
3:58 PM 42.1 °F 39.2 °F 24.1 °F 49% 30.15 in 10.0 mi Variable 4.6 mph - N/A   Overcast
4:58 PM 41.9 °F 39.0 °F 24.4 °F 50% 30.17 in 10.0 mi ESE 4.6 mph - N/A   Overcast
5:23 PM 41.0 °F 39.0 °F 24.8 °F 53% 30.16 in 10.0 mi ESE 3.5 mph - N/A   Overcast
5:58 PM 41.7 °F 38.8 °F 24.4 °F 50% 30.17 in 10.0 mi ESE 4.6 mph - N/A   Overcast
6:18 PM 41.0 °F 38.0 °F 24.8 °F 53% 30.14 in 10.0 mi East 4.6 mph - N/A   Overcast
6:28 PM 41.0 °F 38.0 °F 24.8 °F 53% 30.13 in 10.0 mi ENE 4.6 mph - N/A   Overcast
6:38 PM 41.0 °F 39.0 °F 24.8 °F 53% 30.13 in 10.0 mi ENE 3.5 mph - N/A   Overcast
6:43 PM 41.0 °F 38.0 °F 24.8 °F 53% 30.13 in 10.0 mi East 4.6 mph - N/A   Overcast
6:58 PM 41.0 °F 38.0 °F 24.8 °F 53% 30.15 in 10.0 mi East 4.6 mph - N/A   Overcast
7:08 PM 41.0 °F 38.0 °F 24.8 °F 53% 30.13 in 10.0 mi East 4.6 mph - N/A   Overcast
7:53 PM 41.0 °F 37.1 °F 23.0 °F 49% 30.13 in 10.0 mi ENE 5.8 mph - N/A   Overcast
7:58 PM 40.8 °F 36.9 °F 23.4 °F 50% 30.15 in 10.0 mi East 5.8 mph - N/A   Overcast
8:08 PM 41.0 °F 37.1 °F 23.0 °F 49% 30.12 in 10.0 mi ENE 5.8 mph - N/A   Overcast
8:59 PM 40.3 °F 37.1 °F 22.8 °F 50% 30.15 in 10.0 mi ENE 4.6 mph - N/A   Overcast
9:23 PM 39.2 °F - 23.0 °F 52% 30.12 in 10.0 mi ENE 2.3 mph - N/A   Overcast
9:48 PM 39.2 °F - 21.2 °F 49% 30.13 in 10.0 mi Variable 2.3 mph - N/A   Overcast
9:58 PM 39.7 °F - 22.3 °F 50% 30.17 in 10.0 mi East 2.3 mph - N/A   Overcast
10:58 PM 39.2 °F 35.0 °F 21.7 °F 50% 30.14 in 10.0 mi East 5.8 mph - N/A   Overcast
11:58 PM 39.0 °F 34.8 °F 22.1 °F 51% 30.18 in 10.0 mi SE 5.8 mph - N/A   Overcast